Sigfox identifier Datetime Temperature Humidity SNR
002EEBA3 2019-04-23 14:53:45 15.9 33 23.7
002EEBA3 2019-04-23 14:22:25 15.8 33 23.8
002EEBA3 2019-04-23 13:51:06 15.7 33 24.1
002EEBA3 2019-04-23 13:19:46 15.7 33 24.3
002EEBA3 2019-04-23 12:48:26 15.6 33 24.4
002EEBA3 2019-04-23 12:17:07 15.5 33 24.5
002EEBA3 2019-04-23 11:45:47 15.5 33 24.6
002EEBA3 2019-04-23 11:14:26 15.5 33 24.7
002EEBA3 2019-04-23 10:43:05 15.4 32 24.7
002EEBA3 2019-04-23 10:11:44 15.3 32 24.6
002EEBA3 2019-04-23 09:40:23 15.3 32 24.4
002EEBA3 2019-04-23 09:09:03 15.3 32 24.4
002EEBA3 2019-04-23 08:37:42 15.3 32 24.8
002EEBA3 2019-04-23 08:06:20 15.3 32 24.9
002EEBA3 2019-04-23 07:35:01 15.3 32 24.9
002EEBA3 2019-04-23 07:03:40 15.3 32 24.9
002EEBA3 2019-04-23 06:32:19 15.3 32 24.9
002EEBA3 2019-04-23 06:00:58 15.3 32 25
002EEBA3 2019-04-23 05:29:38 15.3 32 25
002EEBA3 2019-04-23 04:58:18 15.3 32 24.9
002EEBA3 2019-04-23 04:26:57 15.3 32 24.9
002EEBA3 2019-04-23 03:55:37 15.3 32 24.9
002EEBA3 2019-04-23 03:24:17 15.3 32 24.8
002EEBA3 2019-04-23 02:52:56 15.3 32 24.8
002EEBA3 2019-04-23 02:21:35 15.4 32 24.9
002EEBA3 2019-04-23 01:50:14 15.5 32 24.8
002EEBA3 2019-04-23 01:18:53 15.5 32 24.7
002EEBA3 2019-04-23 00:47:32 15.5 32 24.6
002EEBA3 2019-04-23 00:16:13 15.5 32 24.6
002EEBA3 2019-04-22 23:44:52 15.5 32 24.5
002EEBA3 2019-04-22 23:13:33 15.5 32 24.3
002EEBA3 2019-04-22 22:42:13 15.5 32 24.3
002EEBA3 2019-04-22 22:10:53 15.5 32 24.3
002EEBA3 2019-04-22 21:39:33 15.5 32 24.3
002EEBA3 2019-04-22 21:08:13 15.5 32 24.3
002EEBA3 2019-04-22 20:36:53 15.6 32 24.3
002EEBA3 2019-04-22 20:05:32 15.7 32 24.3
002EEBA3 2019-04-22 19:34:11 15.7 32 23.8
002EEBA3 2019-04-22 19:02:51 15.7 32 23.7
002EEBA3 2019-04-22 18:31:31 15.7 32 23.6
002EEBA3 2019-04-22 18:00:11 15.7 32 23.6
002EEBA3 2019-04-22 17:28:51 15.7 32 23.5
002EEBA3 2019-04-22 16:57:30 15.6 32 23.5
002EEBA3 2019-04-22 16:26:09 15.6 32 23.4
002EEBA3 2019-04-22 15:54:48 15.5 32 23.4
002EEBA3 2019-04-22 15:23:28 15.5 32 24
002EEBA3 2019-04-22 14:52:07 15.5 32 24.1
002EEBA3 2019-04-22 14:20:48 15.5 32 24.1
002EEBA3 2019-04-22 13:49:28 15.5 32 24.1
002EEBA3 2019-04-22 13:18:08 15.5 32 24
002EEBA3 2019-04-22 12:46:48 15.4 32 24.1
002EEBA3 2019-04-22 12:15:29 15.5 32 24.1
002EEBA3 2019-04-22 11:44:09 15.5 32 24.1
002EEBA3 2019-04-22 11:12:48 15.5 32 24.2
002EEBA3 2019-04-22 10:41:28 15.4 32 24.3
002EEBA3 2019-04-22 10:10:07 15.3 32 24.3
002EEBA3 2019-04-22 09:38:47 15.3 32 24.3
002EEBA3 2019-04-22 09:07:27 15.3 32 24.3
002EEBA3 2019-04-22 08:36:07 15.3 31 24.2
002EEBA3 2019-04-22 08:04:48 15.3 31 24.4
002EEBA3 2019-04-22 07:33:29 15.3 31 24.4
002EEBA3 2019-04-22 07:02:10 15.3 31 24.4
002EEBA3 2019-04-22 06:30:51 15.3 31 24.4
002EEBA3 2019-04-22 05:59:32 15.3 31 24.5
002EEBA3 2019-04-22 05:28:12 15.3 32 24.5
002EEBA3 2019-04-22 04:56:53 15.2 31 24.6
002EEBA3 2019-04-22 04:25:33 15.3 31 24.6
002EEBA3 2019-04-22 03:54:14 15.2 31 24.5
002EEBA3 2019-04-22 03:22:54 15.3 31 24.6
002EEBA3 2019-04-22 02:51:34 15.3 31 24.5
002EEBA3 2019-04-22 02:20:14 15.3 31 24
002EEBA3 2019-04-22 01:48:55 15.2 31 24
002EEBA3 2019-04-22 01:17:35 15.3 31 23.8
002EEBA3 2019-04-22 00:46:14 15.3 31 23.9
002EEBA3 2019-04-22 00:14:53 15.2 31 23.8
002EEBA3 2019-04-21 23:43:32 15.2 31 23.8
002EEBA3 2019-04-21 23:12:10 15.2 31 23.8
002EEBA3 2019-04-21 22:40:50 15.3 31 23.6
002EEBA3 2019-04-21 22:09:30 15.3 31 23.6
002EEBA3 2019-04-21 21:38:10 15.2 31 23.6
002EEBA3 2019-04-21 21:06:51 15.3 31 23.6
002EEBA3 2019-04-21 20:35:32 15.3 31 23.8
002EEBA3 2019-04-21 20:04:12 15.3 31 23.8
002EEBA3 2019-04-21 19:32:54 15.3 31 23.9
002EEBA3 2019-04-21 19:01:34 15.2 31 23.6
002EEBA3 2019-04-21 18:30:13 15.2 31 23.6
002EEBA3 2019-04-21 17:58:53 15.2 31 23.6
002EEBA3 2019-04-21 17:27:33 15.2 31 23.5
002EEBA3 2019-04-21 16:56:12 15.2 31 23.5
002EEBA3 2019-04-21 16:24:51 15.2 31 23.3
002EEBA3 2019-04-21 15:53:29 15.2 31 23.5
002EEBA3 2019-04-21 15:22:09 15.2 31 23.5
002EEBA3 2019-04-21 14:50:48 15.2 31 23.6
002EEBA3 2019-04-21 14:19:26 15.2 31 23.7
002EEBA3 2019-04-21 13:48:04 15.2 31 23.7
002EEBA3 2019-04-21 13:16:42 15.2 31 23.7
002EEBA3 2019-04-21 12:45:21 15.2 31 23.7
002EEBA3 2019-04-21 12:13:59 15.2 31 23.8
002EEBA3 2019-04-21 11:42:37 15.2 31 23.8
002EEBA3 2019-04-21 11:11:16 15.2 31 23.9
002EEBA3 2019-04-21 10:39:53 15.2 31 23.9
002EEBA3 2019-04-21 10:08:30 15.2 31 23.9
002EEBA3 2019-04-21 09:37:08 15.3 31 23.9
002EEBA3 2019-04-21 09:05:46 15.3 31 23.8
002EEBA3 2019-04-21 08:34:25 15.3 31 23.8
002EEBA3 2019-04-21 08:03:06 15.3 31 23.6
002EEBA3 2019-04-21 07:31:44 15.3 30 23.5
002EEBA3 2019-04-21 07:00:24 15.3 31 23.6
002EEBA3 2019-04-21 06:29:01 15.3 30 23.6
002EEBA3 2019-04-21 05:57:41 15.3 31 23.6
002EEBA3 2019-04-21 05:26:19 15.3 30 23.6
002EEBA3 2019-04-21 04:54:57 15.3 30 23.6
002EEBA3 2019-04-21 04:23:36 15.3 30 23.6
002EEBA3 2019-04-21 03:52:14 15.3 30 23.6
002EEBA3 2019-04-21 03:20:51 15.3 30 23.3
002EEBA3 2019-04-21 02:49:30 15.3 30 23.3
002EEBA3 2019-04-21 02:18:08 15.3 30 23.2
002EEBA3 2019-04-21 01:46:46 15.3 30 23.2
002EEBA3 2019-04-21 01:15:24 15.3 30 23.2
002EEBA3 2019-04-21 00:44:02 15.3 30 22.9
002EEBA3 2019-04-21 00:12:40 15.3 30 22.9
002EEBA3 2019-04-20 23:41:19 15.3 30 23
002EEBA3 2019-04-20 23:09:59 15.3 30 23
002EEBA3 2019-04-20 22:38:38 15.3 30 23
002EEBA3 2019-04-20 22:07:17 15.3 30 23
002EEBA3 2019-04-20 21:35:55 15.3 30 23
002EEBA3 2019-04-20 21:04:33 15.3 30 23
002EEBA3 2019-04-20 20:33:12 15.3 30 23.1
002EEBA3 2019-04-20 20:01:49 15.3 30 23.1
002EEBA3 2019-04-20 19:30:28 15.3 30 23.2
002EEBA3 2019-04-20 18:59:07 15.3 30 23.1
002EEBA3 2019-04-20 18:27:45 15.4 30 23.2
002EEBA3 2019-04-20 17:56:24 15.4 30 23.3
002EEBA3 2019-04-20 17:25:03 15.3 30 23.4
002EEBA3 2019-04-20 16:53:42 15.3 30 23.5
002EEBA3 2019-04-20 16:22:20 15.3 30 23.5
002EEBA3 2019-04-20 15:50:59 15.3 30 23.6
002EEBA3 2019-04-20 15:19:39 15.3 30 23.6
002EEBA3 2019-04-20 14:48:20 15.3 30 23.6
002EEBA3 2019-04-20 14:17:00 15.3 30 23.8
002EEBA3 2019-04-20 13:45:39 15.3 30 23.9
002EEBA3 2019-04-20 13:14:18 15.3 30 24
002EEBA3 2019-04-20 12:42:59 15.3 30 24.2
002EEBA3 2019-04-20 12:11:38 15.3 30 24.3
002EEBA3 2019-04-20 11:40:17 15.3 30 24.3
002EEBA3 2019-04-20 11:08:57 15.5 30 24.3
002EEBA3 2019-04-20 10:37:36 15.4 30 24.2
002EEBA3 2019-04-20 10:06:15 15.4 30 24.1
002EEBA3 2019-04-20 09:34:53 15.5 29 24.1
002EEBA3 2019-04-20 09:03:31 15.5 29 24.1
002EEBA3 2019-04-20 08:32:10 15.5 29 23.9
002EEBA3 2019-04-20 08:00:49 15.5 29 23.8
002EEBA3 2019-04-20 07:29:27 15.5 29 23.9
002EEBA3 2019-04-20 06:58:05 15.5 29 23.9
002EEBA3 2019-04-20 06:26:44 15.5 29 24
002EEBA3 2019-04-20 05:55:23 15.5 29 23.9
002EEBA3 2019-04-20 05:24:00 15.5 29 23.9
002EEBA3 2019-04-20 04:52:39 15.5 29 23.7
002EEBA3 2019-04-20 04:21:16 15.5 29 23.8
002EEBA3 2019-04-20 03:49:55 15.5 29 23.7
002EEBA3 2019-04-20 03:18:34 15.6 29 23.6
002EEBA3 2019-04-20 02:47:12 15.7 29 23.6
002EEBA3 2019-04-20 02:15:50 15.7 29 23.6
002EEBA3 2019-04-20 01:44:30 15.7 29 23.5
002EEBA3 2019-04-20 01:13:10 15.7 29 23.5
002EEBA3 2019-04-20 00:41:50 15.7 29 23.5
002EEBA3 2019-04-20 00:10:29 15.7 29 23.4
002EEBA3 2019-04-19 23:39:09 15.8 29 23.4
002EEBA3 2019-04-19 23:07:48 15.8 29 23.4
002EEBA3 2019-04-19 22:36:31 15.8 29 23.3
002EEBA3 2019-04-19 22:05:06 15.9 29 23.6
002EEBA3 2019-04-19 21:33:46 15.9 29 23.6
002EEBA3 2019-04-19 21:02:29 15.9 29 23.8
002EEBA3 2019-04-19 20:31:04 15.9 29 23.7
002EEBA3 2019-04-19 19:59:43 15.9 29 23.7
002EEBA3 2019-04-19 19:28:23 15.9 29 23.7
002EEBA3 2019-04-19 18:57:03 15.9 29 23.7
002EEBA3 2019-04-19 18:25:43 15.9 29 23.7
002EEBA3 2019-04-19 17:54:22 15.9 29 23.6
002EEBA3 2019-04-19 17:23:02 15.9 29 23.7
002EEBA3 2019-04-19 16:51:41 15.9 29 23.7
002EEBA3 2019-04-19 16:20:21 15.9 29 23.8
002EEBA3 2019-04-19 15:49:00 15.8 29 23.8
002EEBA3 2019-04-19 15:17:37 15.8 29 23.8
002EEBA3 2019-04-19 14:46:15 15.7 29 23.8
002EEBA3 2019-04-19 14:14:53 15.7 29 23.9
002EEBA3 2019-04-19 13:43:31 15.7 29 23.8
002EEBA3 2019-04-19 13:12:09 15.7 28 23.8
002EEBA3 2019-04-19 12:40:46 15.7 29 23.6
002EEBA3 2019-04-19 12:09:24 15.7 28 23.7
002EEBA3 2019-04-19 11:38:00 15.7 28 23.8
002EEBA3 2019-04-19 11:06:37 15.7 28 23.9
002EEBA3 2019-04-19 10:35:14 15.7 28 24.1
002EEBA3 2019-04-19 10:03:52 15.7 28 24.1
002EEBA3 2019-04-19 09:32:30 15.7 28 24.1
002EEBA3 2019-04-19 09:01:09 15.7 28 24.2
002EEBA3 2019-04-19 08:29:48 15.7 28 24.1
002EEBA3 2019-04-19 07:58:26 15.7 28 24.6
002EEBA3 2019-04-19 07:27:05 15.7 28 24.6
002EEBA3 2019-04-19 06:55:43 15.7 28 24.5
002EEBA3 2019-04-19 06:24:21 15.7 28 24.5
002EEBA3 2019-04-19 05:52:59 15.7 28 24.4
002EEBA3 2019-04-19 05:21:38 15.8 28 24.3
002EEBA3 2019-04-19 04:50:17 15.8 28 24.2
002EEBA3 2019-04-19 04:18:56 15.9 28 24.1
002EEBA3 2019-04-19 03:47:35 15.9 28 23.9
002EEBA3 2019-04-19 03:16:13 15.9 28 23.9
002EEBA3 2019-04-19 02:44:53 15.9 28 24.1
002EEBA3 2019-04-19 02:13:33 15.9 28 24
002EEBA3 2019-04-19 01:42:11 16 28 23.9
002EEBA3 2019-04-19 01:10:50 16.1 28 24
002EEBA3 2019-04-19 00:39:29 16.1 28 24.1
002EEBA3 2019-04-19 00:08:07 16.1 28 24.3
002EEBA3 2019-04-18 23:36:46 16.2 28 24.4
002EEBA3 2019-04-18 23:05:25 16.3 28 24.3
002EEBA3 2019-04-18 22:34:04 16.3 28 24.2
002EEBA3 2019-04-18 22:02:41 16.3 28 24.1
002EEBA3 2019-04-18 21:31:19 16.3 28 24.5
002EEBA3 2019-04-18 20:59:56 16.3 28 24.4
002EEBA3 2019-04-18 20:28:34 16.3 28 24.5
002EEBA3 2019-04-18 19:57:11 16.3 28 24.4
002EEBA3 2019-04-18 19:25:48 16.3 27 24.4
002EEBA3 2019-04-18 18:54:25 16.3 27 23.9
002EEBA3 2019-04-18 18:23:01 16.4 27 24
002EEBA3 2019-04-18 17:51:37 16.3 27 24.1
002EEBA3 2019-04-18 17:20:14 16.3 27 24.1
002EEBA3 2019-04-18 16:48:51 16.3 27 24.3
002EEBA3 2019-04-18 16:17:27 16.3 27 24.5
002EEBA3 2019-04-18 15:46:04 16.3 27 24.6
002EEBA3 2019-04-18 15:14:42 16.1 27 24.7
002EEBA3 2019-04-18 14:43:18 16.1 27 24.8
002EEBA3 2019-04-18 14:11:56 16.1 27 24.7
002EEBA3 2019-04-18 13:40:32 16.1 27 24.6
002EEBA3 2019-04-18 13:09:10 16 27 24.7
002EEBA3 2019-04-18 12:37:47 16 27 24.8
002EEBA3 2019-04-18 12:06:25 16.1 27 24.7
002EEBA3 2019-04-18 11:35:04 16.1 27 24.6
002EEBA3 2019-04-18 11:03:44 16.1 27 24.6
002EEBA3 2019-04-18 10:32:24 16.1 27 24.7
002EEBA3 2019-04-18 10:01:05 16 27 24.8
002EEBA3 2019-04-18 09:29:44 15.9 27 24.9
002EEBA3 2019-04-18 08:58:24 16.1 27 24.6
002EEBA3 2019-04-18 08:27:03 16.1 27 24.6
002EEBA3 2019-04-18 07:55:42 16.1 27 24.5
002EEBA3 2019-04-18 07:24:21 16.1 27 24.6
002EEBA3 2019-04-18 06:53:00 16.1 27 24.7
002EEBA3 2019-04-18 06:21:39 16.1 27 24.8
002EEBA3 2019-04-18 05:50:18 16.1 27 24.9
002EEBA3 2019-04-18 05:18:56 16.1 27 24.9
002EEBA3 2019-04-18 04:47:32 16.1 27 24.9
002EEBA3 2019-04-18 04:16:10 16.1 27 24.7
002EEBA3 2019-04-18 03:44:46 16.1 27 24.7
002EEBA3 2019-04-18 03:13:22 16.1 27 24.6
002EEBA3 2019-04-18 02:42:00 16.1 27 24.7
002EEBA3 2019-04-18 02:10:37 16.3 27 24.6
002EEBA3 2019-04-18 01:39:13 16.3 26 24.4
002EEBA3 2019-04-18 01:07:49 16.4 26 24.6
002EEBA3 2019-04-18 00:36:25 16.5 26 24.5
002EEBA3 2019-04-18 00:05:03 16.5 26 24.3
002EEBA3 2019-04-17 23:33:38 16.6 26 24.8
002EEBA3 2019-04-17 23:02:16 16.7 26 24.6
002EEBA3 2019-04-17 22:30:52 16.7 26 24.6
002EEBA3 2019-04-17 21:59:29 16.7 26 24.5
002EEBA3 2019-04-17 21:28:06 16.6 26 24.2
002EEBA3 2019-04-17 20:56:43 16.5 26 24.1
002EEBA3 2019-04-17 20:25:20 16.5 26 23.9
002EEBA3 2019-04-17 19:53:59 16.5 26 23.9
002EEBA3 2019-04-17 19:22:38 16.6 26 24.4
002EEBA3 2019-04-17 18:51:16 16.6 26 24.2
002EEBA3 2019-04-17 18:19:56 16.6 26 24.1
002EEBA3 2019-04-17 17:48:35 16.7 26 24
002EEBA3 2019-04-17 17:17:14 16.7 26 24.1
002EEBA3 2019-04-17 16:45:54 16.7 26 24
002EEBA3 2019-04-17 16:14:32 16.7 26 24
002EEBA3 2019-04-17 15:43:11 16.7 26 24.6
002EEBA3 2019-04-17 15:11:51 16.8 26 24.7
002EEBA3 2019-04-17 14:40:30 16.8 26 24.6
002EEBA3 2019-04-17 14:09:09 17 26 24.5
002EEBA3 2019-04-17 13:06:27 17.2 25 24.7
002EEBA3 2019-04-17 12:35:06 17.1 25 24.7
002EEBA3 2019-04-17 12:03:44 17.1 25 24.7
002EEBA3 2019-04-17 11:32:24 17 25 24.6
002EEBA3 2019-04-17 11:01:05 17 25 24.6
002EEBA3 2019-04-17 10:29:45 17.1 25 24.5
002EEBA3 2019-04-17 09:58:24 17.2 25 23.9
002EEBA3 2019-04-17 09:27:05 17.2 25 23.9
002EEBA3 2019-04-17 08:55:45 17.2 25 23.7
002EEBA3 2019-04-17 08:24:25 17.4 25 23.7
002EEBA3 2019-04-17 07:53:07 17.4 25 23.6
002EEBA3 2019-04-17 07:21:47 17.6 25 23.6
002EEBA3 2019-04-17 06:50:29 17.6 25 23.6
002EEBA3 2019-04-17 06:19:10 17.8 25 23.6
002EEBA3 2019-04-17 05:47:51 17.8 24 22.9
002EEBA3 2019-04-17 05:16:34 17.8 24 23.1
002EEBA3 2019-04-17 04:45:16 17.8 24 23.7
002EEBA3 2019-04-17 04:13:57 18 24 23.6
002EEBA3 2019-04-17 03:42:37 18 24 23.3
002EEBA3 2019-04-17 03:11:19 18 24 23.2
002EEBA3 2019-04-17 02:39:59 18.2 24 23
002EEBA3 2019-04-17 02:08:41 18.2 24 22.1
002EEBA3 2019-04-17 01:37:22 18.2 24 22
002EEBA3 2019-04-17 01:06:03 18.2 24 22.1
002EEBA3 2019-04-17 00:34:45 18.2 24 22
002EEBA3 2019-04-17 00:03:26 18.3 24 21.6
002EEBA3 2019-04-16 23:32:06 18.3 24 21.6
002EEBA3 2019-04-16 23:00:46 18.4 24 21.3
002EEBA3 2019-04-16 22:29:26 18.7 24 21.5
002EEBA3 2019-04-16 21:58:06 18.8 24 22.4
002EEBA3 2019-04-16 21:26:46 18.9 23 22.6
002EEBA3 2019-04-16 20:55:26 19.1 23 22.8
002EEBA3 2019-04-16 20:24:07 19.1 23 22.8
002EEBA3 2019-04-16 19:52:47 19.1 23 22.9
002EEBA3 2019-04-16 19:21:27 19.2 23 22.9
002EEBA3 2019-04-16 18:50:07 19.2 23 22.9
002EEBA3 2019-04-16 18:18:48 19.3 23 23
002EEBA3 2019-04-16 17:47:28 19.3 23 23.2
002EEBA3 2019-04-16 16:44:50 19.7 23 23.2
002EEBA3 2019-04-16 16:13:31 19.9 23 23.2
002EEBA3 2019-04-16 15:10:54 20.4 23 23.1
002EEBA3 2019-04-16 14:39:35 20.6 23 22.4
002EEBA3 2019-04-16 13:36:58 20.8 23 22.5
002EEBA3 2019-04-16 13:05:39 20.8 23 22.7
002EEBA3 2019-04-16 12:34:25 20.7 23 22.8
002EEBA3 2019-04-16 12:03:02 20.7 23 23.1
002EEBA3 2019-04-16 11:31:43 20.6 23 23.9
002EEBA3 2019-04-16 11:00:24 20.6 23 24
002EEBA3 2019-04-16 10:29:06 20.6 23 24.1
002EEBA3 2019-04-16 09:57:45 20.6 22 24.1
002EEBA3 2019-04-16 09:26:25 20.6 22 24.3
002EEBA3 2019-04-16 08:55:07 20.6 22 24.2
002EEBA3 2019-04-16 08:23:48 20.6 22 24.2
002EEBA3 2019-04-16 07:52:28 20.6 22 24.2
002EEBA3 2019-04-16 07:21:10 20.6 22 23.6
002EEBA3 2019-04-16 06:49:52 20.6 22 23.5
002EEBA3 2019-04-16 06:18:36 20.6 22 23.4
002EEBA3 2019-04-16 05:47:18 20.6 22 23.4
002EEBA3 2019-04-16 05:16:01 20.7 22 23.6
002EEBA3 2019-04-16 04:44:44 20.7 22 23.5
002EEBA3 2019-04-16 04:13:26 20.7 22 23.5
002EEBA3 2019-04-16 03:42:08 20.7 22 23.4
002EEBA3 2019-04-16 03:10:50 20.7 22 23.3
002EEBA3 2019-04-16 02:39:31 20.8 22 23.2
002EEBA3 2019-04-16 02:08:13 20.8 22 23.2
002EEBA3 2019-04-16 01:36:55 20.8 22 23.2
002EEBA3 2019-04-16 01:05:37 20.8 21 23.2
002EEBA3 2019-04-16 00:34:19 20.8 21 23.5
002EEBA3 2019-04-16 00:03:00 20.8 21 23.7
002EEBA3 2019-04-15 23:31:42 20.8 21 23.7
002EEBA3 2019-04-15 23:00:24 20.8 21 23.7
002EEBA3 2019-04-15 22:29:03 20.8 21 23.7
002EEBA3 2019-04-15 21:57:47 20.8 21 23.6
002EEBA3 2019-04-15 21:26:26 20.8 21 23.4
002EEBA3 2019-04-15 20:55:08 20.8 21 24
002EEBA3 2019-04-15 20:23:50 20.8 21 24
002EEBA3 2019-04-15 19:52:31 20.9 21 24.6
002EEBA3 2019-04-15 19:21:12 20.8 21 24.9
002EEBA3 2019-04-15 18:49:53 20.9 20 24.9
002EEBA3 2019-04-15 18:18:35 21 20 25
002EEBA3 2019-04-15 17:47:17 21 20 25.1
002EEBA3 2019-04-15 17:15:58 21 20 25.3
002EEBA3 2019-04-15 16:44:40 21.2 20 25.4
002EEBA3 2019-04-15 16:13:22 21.2 20 25.4
002EEBA3 2019-04-15 15:42:04 21.3 20 25.6
002EEBA3 2019-04-15 15:10:46 21.4 19 25.8
002EEBA3 2019-04-15 14:39:29 21.5 19 26
002EEBA3 2019-04-15 14:08:10 21.7 19 26.1
002EEBA3 2019-04-15 13:36:52 21.9 19 26.2
002EEBA3 2019-04-15 13:05:35 22.1 19 26.4
002EEBA3 2019-04-15 12:34:20 22.1 18 26.4
002EEBA3 2019-04-15 12:03:02 21.9 16 26.3
002EEBA3 2019-04-15 11:31:45 21.9 16 26.2
002EEBA3 2019-04-15 11:00:27 21.9 17 26.2
002EEBA3 2019-04-15 10:29:08 21.9 17 26.2
002EEBA3 2019-04-15 09:57:50 21.9 17 26.2
002EEBA3 2019-04-15 09:26:32 21.8 17 25.9
002EEBA3 2019-04-15 08:55:14 21.7 17 25.9
002EEBA3 2019-04-15 08:23:57 21.7 17 26
002EEBA3 2019-04-15 07:52:39 21.7 18 25.8
002EEBA3 2019-04-15 07:21:22 21.7 18 25.8
002EEBA3 2019-04-15 06:50:05 21.6 18 25.4
002EEBA3 2019-04-15 06:18:47 21.6 18 25.3
002EEBA3 2019-04-15 05:47:30 21.6 18 25.3
002EEBA3 2019-04-15 05:16:13 21.5 18 25.4
002EEBA3 2019-04-15 04:44:56 21.5 18 25.4
002EEBA3 2019-04-15 04:13:39 21.5 18 25.3
002EEBA3 2019-04-15 03:42:22 21.6 18 25.7
002EEBA3 2019-04-15 03:11:06 21.5 18 25.7
002EEBA3 2019-04-15 02:39:49 21.5 18 25.7
002EEBA3 2019-04-15 02:08:31 21.5 18 25.5
002EEBA3 2019-04-15 01:37:14 21.4 18 25.4
002EEBA3 2019-04-15 01:05:58 21.5 18 25.5
002EEBA3 2019-04-15 00:34:40 21.6 18 25.4
002EEBA3 2019-04-15 00:03:23 21.5 18 25.4
002EEBA3 2019-04-14 23:32:07 21.6 18 25.5
002EEBA3 2019-04-14 23:00:50 21.7 18 25.6
002EEBA3 2019-04-14 22:29:34 21.7 18 25.6
002EEBA3 2019-04-14 21:58:16 21.7 19 25.5
002EEBA3 2019-04-14 21:27:01 21.7 19 25.6
002EEBA3 2019-04-14 20:55:44 21.7 19 25.6
002EEBA3 2019-04-14 20:24:29 21.7 19 25.7
002EEBA3 2019-04-14 19:53:13 21.7 19 25.7
002EEBA3 2019-04-14 19:21:58 21.7 19 25.7
002EEBA3 2019-04-14 18:50:43 21.7 19 25.6
002EEBA3 2019-04-14 18:19:26 21.7 19 25.7
002EEBA3 2019-04-14 17:48:10 21.7 19 25.7
002EEBA3 2019-04-14 17:16:53 21.7 19 25.8
002EEBA3 2019-04-14 16:45:37 21.7 19 25.9
002EEBA3 2019-04-14 16:14:21 21.7 19 25.8
002EEBA3 2019-04-14 15:43:05 21.7 19 26.1
002EEBA3 2019-04-14 15:11:49 21.7 19 26.1
002EEBA3 2019-04-14 14:40:34 21.7 19 25.9
002EEBA3 2019-04-14 14:09:18 21.7 19 25.9
002EEBA3 2019-04-14 13:38:02 21.7 19 25.9
002EEBA3 2019-04-14 13:06:48 21.7 19 26
002EEBA3 2019-04-14 12:35:32 21.7 19 26
002EEBA3 2019-04-14 12:04:17 21.7 19 25.9
002EEBA3 2019-04-14 11:33:01 21.7 19 26
002EEBA3 2019-04-14 11:01:45 21.7 19 25.9
002EEBA3 2019-04-14 10:30:29 21.7 19 25.8
002EEBA3 2019-04-14 09:59:12 21.7 19 25.8
002EEBA3 2019-04-14 09:27:56 21.7 19 25.8
002EEBA3 2019-04-14 08:56:40 21.7 19 25.9
002EEBA3 2019-04-14 08:25:24 21.7 19 25.9
002EEBA3 2019-04-14 07:54:06 21.7 19 25.9
002EEBA3 2019-04-14 07:22:51 21.6 19 25.9
002EEBA3 2019-04-14 06:51:34 21.7 18 25.9
002EEBA3 2019-04-14 06:20:18 21.6 18 25.9
002EEBA3 2019-04-14 05:49:02 21.7 18 25.9
002EEBA3 2019-04-14 05:17:46 21.7 18 25.8
002EEBA3 2019-04-14 04:46:31 21.7 18 25.9
002EEBA3 2019-04-14 04:15:16 21.7 18 25.7
002EEBA3 2019-04-14 03:44:02 21.7 18 25.7
002EEBA3 2019-04-14 03:12:45 21.7 19 25.7
002EEBA3 2019-04-14 02:41:30 21.7 19 25.3
002EEBA3 2019-04-14 02:10:15 21.7 19 25.2
002EEBA3 2019-04-14 01:39:00 21.7 19 25.1
002EEBA3 2019-04-14 01:07:47 21.7 19 25
002EEBA3 2019-04-14 00:36:31 21.7 19 24.9
002EEBA3 2019-04-14 00:05:16 21.8 18 24.9
002EEBA3 2019-04-13 23:34:00 21.8 18 25.1
002EEBA3 2019-04-13 23:02:45 21.8 18 25.1
002EEBA3 2019-04-13 22:31:30 21.9 18 25
002EEBA3 2019-04-13 22:00:14 21.9 18 25.1
002EEBA3 2019-04-13 21:28:58 21.9 18 25.1
002EEBA3 2019-04-13 20:57:42 21.9 18 25.2
002EEBA3 2019-04-13 20:26:26 21.9 18 25.1
002EEBA3 2019-04-13 19:55:09 21.9 18 25.1
002EEBA3 2019-04-13 19:23:52 21.9 18 25
002EEBA3 2019-04-13 18:52:36 21.9 18 25.1
002EEBA3 2019-04-13 18:21:19 22 19 25.2
002EEBA3 2019-04-13 17:50:03 21.9 19 25.2
002EEBA3 2019-04-13 17:18:48 22.1 19 25.3
002EEBA3 2019-04-13 16:47:32 22.1 19 25.3
002EEBA3 2019-04-13 16:16:14 22.1 19 25.3
002EEBA3 2019-04-13 15:44:58 22.1 19 25.2
002EEBA3 2019-04-13 15:13:43 22.1 19 25.2
002EEBA3 2019-04-13 14:42:27 22.1 19 25.4
002EEBA3 2019-04-13 14:11:10 22.1 19 25.4
002EEBA3 2019-04-13 13:39:54 22.1 19 25.5
002EEBA3 2019-04-13 13:08:38 22.1 19 25.5
002EEBA3 2019-04-13 12:37:23 22.1 19 25.4
002EEBA3 2019-04-13 12:06:08 22.1 19 25.6
002EEBA3 2019-04-13 11:34:52 22.1 19 25.6
002EEBA3 2019-04-13 11:03:37 22.1 19 25.9
002EEBA3 2019-04-13 10:32:21 22.1 19 25.6
002EEBA3 2019-04-13 10:01:04 22.1 19 25.7
002EEBA3 2019-04-13 09:29:49 22.1 18 25.7
002EEBA3 2019-04-13 08:58:33 22.1 18 25.6
002EEBA3 2019-04-13 08:27:18 22.1 18 25.7
002EEBA3 2019-04-13 07:56:03 22.1 18 25.8
002EEBA3 2019-04-13 07:24:47 22.1 18 25.8
002EEBA3 2019-04-13 06:53:32 22.1 18 25.8
002EEBA3 2019-04-13 06:22:16 22.1 18 25.7
002EEBA3 2019-04-13 05:51:00 22.1 18 25.7
002EEBA3 2019-04-13 05:19:43 22.1 18 25.7
002EEBA3 2019-04-13 04:48:27 22.1 18 25.6
002EEBA3 2019-04-13 04:17:11 22.1 18 25.6
002EEBA3 2019-04-13 03:45:55 22.1 18 25.5
002EEBA3 2019-04-13 03:14:39 22.1 18 25.9
002EEBA3 2019-04-13 02:43:25 22.1 19 26.2
002EEBA3 2019-04-13 02:12:08 22.3 19 26.1
002EEBA3 2019-04-13 01:40:52 22.3 19 25.9
002EEBA3 2019-04-13 01:09:36 22.3 19 25.9
002EEBA3 2019-04-13 00:38:20 22.3 19 25.9
002EEBA3 2019-04-13 00:07:03 22.3 19 25.9
002EEBA3 2019-04-12 23:35:46 22.3 19 26
002EEBA3 2019-04-12 23:04:28 22.3 19 26
002EEBA3 2019-04-12 22:33:11 22.4 19 26.1
002EEBA3 2019-04-12 22:01:53 22.5 19 25.8
002EEBA3 2019-04-12 21:30:34 22.5 20 25.9
002EEBA3 2019-04-12 20:59:17 22.5 20 25.9
002EEBA3 2019-04-12 20:28:00 22.5 19 26
002EEBA3 2019-04-12 19:56:44 22.5 19 26.1
002EEBA3 2019-04-12 19:25:28 22.5 19 26
002EEBA3 2019-04-12 18:54:10 22.5 18 25.9
002EEBA3 2019-04-12 18:22:54 22.7 17 25.9
002EEBA3 2019-04-12 17:51:37 22.7 17 26.1
002EEBA3 2019-04-12 17:20:20 22.7 17 26.2
002EEBA3 2019-04-12 16:49:02 22.7 17 26.4
002EEBA3 2019-04-12 16:17:44 22.7 18 26.6
002EEBA3 2019-04-12 15:46:27 22.5 18 26.7
002EEBA3 2019-04-12 15:15:10 22.4 19 27
002EEBA3 2019-04-12 14:43:53 22.3 19 27.6
002EEBA3 2019-04-12 14:12:37 21.9 19 26.3
002EEBA3 2019-04-12 13:41:20 21.4 20 21.4
002EEBA3 2019-04-12 13:10:02 20.8 21 16.7